TimeEDT,TemperatureF,Dew PointF,Humidity,Sea Level PressureIn,VisibilityMPH,Wind Direction,Wind SpeedMPH,Gust SpeedMPH,PrecipitationIn,Events,Conditions,WindDirDegrees,DateUTC
12:53 AM,42.1,32.0,67,29.90,10.0,SSW,3.5,-,0.00,,Overcast,210,2013-10-23 04:53:00
1:36 AM,39.2,33.8,81,29.88,10.0,Calm,Calm,-,0.00,Rain,Light Rain,0,2013-10-23 05:36:00
1:43 AM,39.2,33.8,81,29.88,10.0,Calm,Calm,-,0.00,Rain,Light Rain,0,2013-10-23 05:43:00
1:53 AM,39.9,34.0,79,29.89,10.0,Calm,Calm,-,0.00,Rain,Light Rain,0,2013-10-23 05:53:00
2:49 AM,39.2,35.6,87,29.85,10.0,Calm,Calm,-,0.02,Rain,Light Rain,0,2013-10-23 06:49:00
2:53 AM,39.0,35.1,86,29.87,10.0,Calm,Calm,-,0.02,Rain,Light Rain,0,2013-10-23 06:53:00
3:08 AM,39.2,35.6,87,29.85,10.0,Calm,Calm,-,0.00,Rain,Light Rain,0,2013-10-23 07:08:00
3:53 AM,37.9,35.1,89,29.84,10.0,Calm,Calm,-,0.00,,Overcast,0,2013-10-23 07:53:00
4:53 AM,37.9,36.0,93,29.81,10.0,Calm,Calm,-,0.00,,Overcast,0,2013-10-23 08:53:00
5:20 AM,37.4,35.6,93,29.80,9.0,Calm,Calm,-,0.00,Rain,Light Rain,0,2013-10-23 09:20:00
5:53 AM,37.0,35.1,93,29.81,9.0,Calm,Calm,-,0.00,,Mostly Cloudy,0,2013-10-23 09:53:00
6:53 AM,37.9,36.0,93,29.81,9.0,Calm,Calm,-,0.00,,Overcast,0,2013-10-23 10:53:00
7:53 AM,37.9,36.0,93,29.81,9.0,Calm,Calm,-,N/A,,Overcast,0,2013-10-23 11:53:00
8:03 AM,37.4,35.6,93,29.80,9.0,Calm,Calm,-,N/A,,Overcast,0,2013-10-23 12:03:00
8:19 AM,37.4,35.6,93,29.81,7.0,Calm,Calm,-,0.00,Rain,Light Rain,0,2013-10-23 12:19:00
8:53 AM,39.0,36.0,89,29.82,10.0,Calm,Calm,-,0.00,,Overcast,0,2013-10-23 12:53:00
9:24 AM,39.2,35.6,87,29.81,9.0,Calm,Calm,-,0.00,,Overcast,0,2013-10-23 13:24:00
9:53 AM,39.9,36.0,86,29.83,10.0,SW,3.5,-,0.00,,Overcast,220,2013-10-23 13:53:00
10:36 AM,39.2,35.6,87,29.82,10.0,NNW,3.5,-,N/A,,Overcast,330,2013-10-23 14:36:00
10:53 AM,39.9,35.1,83,29.83,10.0,WNW,5.8,-,N/A,,Overcast,300,2013-10-23 14:53:00
11:53 AM,41.0,36.0,82,29.83,8.0,NW,8.1,-,0.00,Rain,Light Rain,310,2013-10-23 15:53:00
12:12 PM,41.0,35.6,81,29.82,9.0,NW,8.1,-,0.01,Rain,Light Rain,310,2013-10-23 16:12:00
12:53 PM,41.0,36.0,82,29.83,9.0,WNW,9.2,-,0.01,Rain,Light Rain,300,2013-10-23 16:53:00
1:19 PM,41.0,35.6,81,29.82,10.0,NW,9.2,-,0.00,Rain,Light Rain,310,2013-10-23 17:19:00
1:31 PM,41.0,35.6,81,29.82,10.0,NW,6.9,-,0.00,Rain,Light Rain,310,2013-10-23 17:31:00
1:53 PM,39.9,35.1,83,29.85,10.0,NNW,6.9,-,0.00,Rain,Light Rain,330,2013-10-23 17:53:00
2:33 PM,41.0,37.4,87,29.83,10.0,WNW,5.8,-,0.01,Rain,Light Rain,300,2013-10-23 18:33:00
2:40 PM,42.8,37.4,81,29.83,10.0,WNW,6.9,-,0.01,Rain,Light Rain,300,2013-10-23 18:40:00
2:49 PM,42.8,37.4,81,29.83,10.0,NW,3.5,-,0.01,Rain,Light Rain,320,2013-10-23 18:49:00
2:53 PM,43.0,37.0,80,29.85,10.0,NNW,8.1,-,0.01,Rain,Light Rain,330,2013-10-23 18:53:00
3:29 PM,41.0,35.6,81,29.85,10.0,NW,6.9,-,0.01,Rain,Light Rain,320,2013-10-23 19:29:00
3:53 PM,41.0,35.1,79,29.87,10.0,WNW,4.6,-,0.01,,Overcast,290,2013-10-23 19:53:00
4:53 PM,42.1,35.1,76,29.89,10.0,West,3.5,-,0.00,,Overcast,270,2013-10-23 20:53:00
5:53 PM,42.1,36.0,79,29.91,10.0,Calm,Calm,-,N/A,,Overcast,0,2013-10-23 21:53:00
6:53 PM,41.0,36.0,82,29.93,10.0,Variable,3.5,-,N/A,,Overcast,0,2013-10-23 22:53:00
7:53 PM,39.0,33.1,79,29.95,10.0,Calm,Calm,-,N/A,,Partly Cloudy,0,2013-10-23 23:53:00
8:53 PM,36.0,33.1,89,29.97,10.0,Calm,Calm,-,N/A,,Partly Cloudy,0,2013-10-24 00:53:00
9:53 PM,36.0,33.1,89,29.97,9.0,Calm,Calm,-,N/A,,Overcast,0,2013-10-24 01:53:00
10:53 PM,39.0,33.1,79,29.99,10.0,Calm,Calm,-,N/A,,Overcast,0,2013-10-24 02:53:00
11:53 PM,39.0,33.1,79,29.99,10.0,WSW,4.6,-,0.00,,Overcast,250,2013-10-24 03:53:00